Location: Recife
(8.0585°S, 34.8848°W)
Time: 04:37:54
(UTC-03:00)

Courier 1B - Pass Details

Date: 22 April 2026
Orbit: 962 x 1209 km, 28.3° (Epoch: 14 May)

Event Time Altitude Azimuth Distance (km) Brightness Sun altitude
Rises 00:56:24 0° 319° (NW) 3,688 - -65.5°
Reaches altitude 10° 00:59:16 10° 328° (NNW) 2,771 - -64.8°
Maximum altitude 01:05:17 34° 32° (NNE) 1,639 - -63.3°
Drops below altitude 10° 01:11:39 10° 95° (E) 2,938 - -61.8°
Exits shadow 01:14:27 - 103° (ESE) 3,833 11.0 -61.1°
Sets 01:14:46 0° 103° (ESE) 3,939 11.1 -61.0°
